Location: Sternwarte auf dem Internationalen Platz Vogelsang IP
(50.5721°N, 6.4398°E)
Time: 23:10:52
(UTC+01:00)

Vanguard 1 - All Passes

Search period start: 05 December 2025 00:00
Search period end: 15 December 2025 00:00
Orbit: 650 x 3821 km, 34.2° (Epoch: 03 December)

Date Brightness Start Highest point End Pass type
(mag) Time Alt. Az. Time Alt. Az. Time Alt. Az.
05 Dec - 10:39:06 10° SSE 10:41:53 12° SE 10:45:09 10° ESE daylight
05 Dec - 12:52:17 10° SW 13:00:29 32° SSE 13:13:48 10° ESE daylight
05 Dec - 15:10:24 10° WSW 15:21:29 41° S 15:39:21 10° ESE daylight
05 Dec - 17:30:55 10° WSW 17:43:57 31° SSW 18:01:43 10° SSE visible
05 Dec - 19:57:44 10° WSW 20:06:01 14° SW 20:15:06 10° SSW visible
06 Dec - 10:55:50 10° S 11:00:24 16° SE 11:06:24 10° ESE daylight
06 Dec - 13:11:01 10° SW 13:19:25 35° SSE 13:33:21 10° ESE daylight
06 Dec - 15:29:34 10° WSW 15:40:42 39° S 15:58:21 10° SE daylight
06 Dec - 17:50:43 10° WSW 18:03:05 27° SSW 18:19:26 10° SSE visible
07 Dec - 11:13:36 10° S 11:19:01 20° SE 11:26:41 10° ESE daylight
07 Dec - 13:29:52 10° SW 13:38:27 36° S 13:52:49 10° ESE daylight
07 Dec - 15:48:49 10° WSW 15:59:55 36° SSW 16:17:07 10° SE daylight
07 Dec - 18:10:54 10° WSW 18:22:11 22° SSW 18:36:31 10° S visible
08 Dec - 11:31:50 10° SSW 11:37:44 23° SSE 11:46:36 10° ESE daylight
08 Dec - 13:48:49 10° WSW 13:57:33 37° S 14:12:07 10° ESE daylight
08 Dec - 16:08:13 10° WSW 16:19:08 32° SSW 16:35:36 10° SE daylight
08 Dec - 18:31:46 10° WSW 18:41:14 17° SW 18:52:40 10° S visible
09 Dec - 11:50:18 10° SSW 11:56:34 26° SSE 12:06:17 10° ESE daylight
09 Dec - 14:07:53 10° WSW 14:16:41 36° S 14:31:17 10° ESE daylight
09 Dec - 16:27:46 10° WSW 16:38:21 28° SSW 16:53:43 10° SSE daylight
09 Dec - 18:54:22 10° WSW 19:00:15 12° SW 19:06:49 10° SSW visible
10 Dec - 09:55:45 10° SSE 09:57:00 10° SE 09:58:19 10° SE daylight
10 Dec - 12:08:59 10° SW 12:15:28 29° SSE 12:25:50 10° ESE daylight
10 Dec - 14:27:01 10° WSW 14:35:52 34° S 14:50:15 10° SE daylight
10 Dec - 16:47:36 10° WSW 16:57:33 24° SSW 17:11:20 10° SSE visible
11 Dec - 10:12:20 10° S 10:15:37 14° SE 10:19:43 10° ESE daylight
11 Dec - 12:27:48 10° SW 12:34:27 30° SSE 12:45:14 10° ESE daylight
11 Dec - 14:46:17 10° WSW 14:55:03 31° S 15:09:00 10° SE daylight
11 Dec - 17:07:52 10° WSW 17:16:43 19° SSW 17:28:18 10° S visible
12 Dec - 10:30:16 10° S 10:34:21 17° SSE 10:39:51 10° ESE daylight
12 Dec - 12:46:43 10° SW 12:53:30 31° S 13:04:30 10° ESE daylight
12 Dec - 15:05:41 10° WSW 15:14:16 27° SSW 15:27:26 10° SE daylight
12 Dec - 17:29:05 10° WSW 17:35:52 14° SW 17:44:03 10° S visible
13 Dec - 10:48:36 10° SSW 10:53:10 20° SSE 10:59:34 10° ESE daylight
13 Dec - 13:05:46 10° SW 13:12:37 30° S 13:23:36 10° SE daylight
13 Dec - 15:25:17 10° WSW 15:33:29 24° SSW 15:45:29 10° SSE daylight
14 Dec - 11:07:12 10° SSW 11:12:03 22° SSE 11:19:05 10° ESE daylight
14 Dec - 13:24:55 10° WSW 13:31:45 28° S 13:42:31 10° SE daylight
14 Dec - 15:45:14 10° WSW 15:52:41 19° SSW 16:02:58 10° SSE daylight
